Weather History for Avalon, CA

Change the Weather History Date:

Wednesday, December 12, 2012

  Actual Average Record
Temperature  
Mean Temperature 52 °F -  
Max Temperature 54 °F 58 °F 79 °F (2010)
Min Temperature 50 °F 48 °F 45 °F (2011)
Degree Days  
Heating Degree Days 13    
Growing Degree Days 2 (Base 50)    
Moisture  
Dew Point 49 °F    
Average Humidity 91    
Maximum Humidity 100    
Minimum Humidity 74    
Precipitation  
Precipitation 0.18 in - - ()
Sea Level Pressure  
Sea Level Pressure 29.91 in    
Wind  
Wind Speed 5 mph (SSW)    
Max Wind Speed 9 mph    
Max Gust Speed -    
Visibility 7 miles    
Events Fog , Rain    
Averages and records for this station are not official NWS values.
T = Trace of Precipitation, MM = Missing Value Source: NWS Daily Summary

Daily Weather History Graph

Daily Weather History Graph

Search for Another Location

Airport:

Trip Planner

Search our weather history database for the weather conditions in past years. The results will help you decide how hot, cold, wet, or windy it might be!

Date:

Astronomy

Dec. 12, 2012 Rise Set
Actual Time 6:48 AM PST 4:46 PM PST
Civil Twilight 6:21 AM PST 5:14 PM PST
Nautical Twilight 5:50 AM PST 5:45 PM PST
Astronomical Twilight 5:19 AM PST 6:15 PM PST
Moon 5:59 AM PST (12/12) 4:28 PM PST (12/12)
Length of Visible Light 10h 53m
Length of Day
9h 58m
Waning Crescent, 0% of the Moon is Illuminated
Dec 12
Waning Crescent
Dec 13
New
Dec 19
First Quarter
Dec 28
Full
Jan 4
Last Quarter

Hourly Weather History & Observations

Time (PST) Temp. Dew Point Humidity Pressure Visibility Wind Dir Wind Speed Gust Speed Precip Events Conditions
12:05 AM 51.8 °F 51.8 °F 100% 29.99 in 7.0 mi South 5.8 mph - N/A   Mostly Cloudy
12:22 AM 50.0 °F 50.0 °F 100% 29.99 in 6.0 mi WSW 6.9 mph - N/A   Scattered Clouds
12:51 AM 50.0 °F 50.0 °F 100% 29.96 in 8.0 mi WSW 8.1 mph - N/A   Partly Cloudy
1:16 AM 51.8 °F 48.2 °F 88% 29.98 in 10.0 mi WSW 4.6 mph - N/A   Mostly Cloudy
1:51 AM 51.1 °F 50.0 °F 96% 29.94 in 9.0 mi Calm Calm - N/A   Overcast
2:51 AM 50.0 °F 48.9 °F 96% 29.93 in 9.0 mi SSW 3.5 mph - N/A   Mostly Cloudy
3:51 AM 51.1 °F 50.0 °F 96% 29.94 in 9.0 mi WSW 6.9 mph - N/A   Overcast
4:03 AM 51.8 °F 50.0 °F 94% 29.96 in 4.0 mi WSW 6.9 mph - N/A   Overcast
4:17 AM 51.8 °F 48.2 °F 88% 29.96 in 8.0 mi SW 9.2 mph - N/A   Overcast
4:51 AM 50.0 °F 48.9 °F 96% 29.94 in 10.0 mi WSW 4.6 mph - N/A   Overcast
5:42 AM 50.0 °F 48.2 °F 94% 29.96 in 10.0 mi Calm Calm - N/A   Overcast
5:51 AM 50.0 °F 48.9 °F 96% 29.95 in 10.0 mi Calm Calm - N/A   Overcast
6:51 AM 51.1 °F 48.9 °F 92% 29.96 in 10.0 mi Calm Calm - N/A   Overcast
7:09 AM 51.8 °F 48.2 °F 88% 29.96 in 10.0 mi Calm Calm - N/A   Overcast
7:51 AM 51.1 °F 48.9 °F 92% 29.96 in 10.0 mi Calm Calm - N/A   Overcast
8:51 AM 52.0 °F 48.9 °F 89% 29.96 in 10.0 mi South 3.5 mph - N/A   Overcast
9:44 AM 53.6 °F 48.2 °F 82% 29.97 in 10.0 mi SW 3.5 mph - N/A   Overcast
9:51 AM 53.1 °F 48.0 °F 83% 29.96 in 10.0 mi Variable 3.5 mph - N/A   Overcast
10:13 AM 53.6 °F 48.2 °F 82% 29.97 in 10.0 mi Variable 4.6 mph - N/A   Overcast
10:51 AM 53.1 °F 45.0 °F 74% 29.96 in 10.0 mi South 5.8 mph - N/A   Overcast
12:51 PM 53.1 °F 46.0 °F 77% 29.91 in 10.0 mi WSW 5.8 mph - N/A   Overcast
1:44 PM 53.6 °F 46.4 °F 77% 29.89 in 10.0 mi SSW 5.8 mph - N/A   Overcast
1:51 PM 53.1 °F 46.0 °F 77% 29.89 in 10.0 mi SSW 5.8 mph - N/A   Overcast
2:51 PM 54.0 °F 46.9 °F 77% 29.88 in 10.0 mi South 3.5 mph - N/A   Overcast
3:51 PM 53.1 °F 46.0 °F 77% 29.88 in 10.0 mi Variable 3.5 mph - N/A   Overcast
4:51 PM 53.1 °F 46.0 °F 77% 29.87 in 10.0 mi SW 3.5 mph - N/A   Overcast
5:51 PM 52.0 °F 46.9 °F 83% 29.87 in 10.0 mi South 3.5 mph - N/A   Overcast
6:51 PM 52.0 °F 46.9 °F 83% 29.86 in 10.0 mi SSW 4.6 mph - N/A   Overcast
7:51 PM 52.0 °F 48.0 °F 86% 29.86 in 10.0 mi Variable 3.5 mph - N/A   Overcast
8:44 PM 51.8 °F 48.2 °F 88% 29.87 in 7.0 mi SSW 5.8 mph - 0.00 in Rain Light Rain
8:51 PM 52.0 °F 48.9 °F 89% 29.86 in 8.0 mi South 5.8 mph - 0.00 in Rain Light Rain
8:57 PM 51.8 °F 50.0 °F 94% 29.87 in 9.0 mi South 5.8 mph - 0.00 in Rain Light Rain
9:11 PM 51.8 °F 50.0 °F 94% 29.86 in 6.0 mi WSW 5.8 mph - 0.01 in Rain Light Rain
9:14 PM 51.8 °F 51.8 °F 100% 29.86 in 1.5 mi SW 6.9 mph - 0.01 in Rain Light Rain
9:16 PM 51.8 °F 51.8 °F 100% 29.86 in 0.8 mi WSW 9.2 mph - 0.02 in Rain Light Rain
9:28 PM 51.8 °F 51.8 °F 100% 29.86 in 0.2 mi SW 9.2 mph - 0.02 in Fog , Rain Light Rain
9:48 PM 51.8 °F 51.8 °F 100% 29.86 in 1.2 mi SSW 4.6 mph - 0.03 in Rain Light Rain
9:51 PM 51.1 °F 51.1 °F 100% 29.86 in 1.5 mi SW 8.1 mph - 0.03 in Rain Light Rain
9:57 PM 51.8 °F 51.8 °F 100% 29.86 in 0.8 mi SSW 6.9 mph - 0.00 in Rain Light Rain
10:25 PM 51.8 °F 50.0 °F 94% 29.86 in 1.0 mi South 3.5 mph - 0.08 in Rain Rain
10:27 PM 51.8 °F 50.0 °F 94% 29.87 in 2.0 mi South 4.6 mph - 0.09 in Rain Rain
10:51 PM 51.1 °F 51.1 °F 100% 29.86 in 1.5 mi SW 5.8 mph - 0.15 in Rain Light Rain
10:59 PM 51.8 °F 51.8 °F 100% 29.86 in 0.8 mi SSW 5.8 mph - 0.00 in Rain Light Rain
11:51 PM 51.1 °F 51.1 °F 100% 29.85 in 0.5 mi SW 9.2 mph - 0.00 in Fog Fog